Erie, PA

2:40 AM EST on December 04, 2016 (GMT -0500)
Erie International

Weather History for KERI - July, 2013

Change the Weather History Date:

Thursday, July 25, 2013

  Actual Average Record
Temperature  
Mean Temperature 65 °F 72 °F  
Max Temperature 74 °F 80 °F 94 °F (1940)
Min Temperature 55 °F 64 °F 49 °F (1976)
Degree Days  
Heating Degree Days 0 0  
Month to date heating degree days 3 2  
Since 1 June heating degree days 71 63  
Since 1 July heating degree days 3 2  
Cooling Degree Days 0 7  
Month to date cooling degree days 233 173  
Year to date cooling degree days 436 335  
Since 1 June cooling degree days 351 296  
Growing Degree Days 14 (Base 50)    
Moisture  
Dew Point 49 °F    
Average Humidity 59    
Maximum Humidity 77    
Minimum Humidity 41    
Precipitation  
Precipitation 0.00 in 0.12 in 1.60 in (1935)
Month to date precipitation 4.67 2.81  
Year to date precipitation 29.18 21.63  
Snow  
Snow 0.00 in 0.00 in - ()
Month to date snowfall 0.0 0.0  
Since 1 June snowfall 0.0 0.0  
Since 1 July snowfall 0.0 0.0  
Snow Depth 0.00 in    
Sea Level Pressure  
Sea Level Pressure 30.08 in    
Wind  
Wind Speed 6 mph (ENE)    
Max Wind Speed 16 mph    
Max Gust Speed 21 mph    
Visibility 10 miles    
Events      
T = Trace of Precipitation, MM = Missing Value Source: NWS Daily Summary

Daily Weather History Graph

Daily Weather History Graph

Search for Another Location

Airport or City:

Trip Planner

Search our weather history database for the weather conditions in past years. The results will help you decide how hot, cold, wet, or windy it might be!

Date:

Astronomy

Jul. 25, 2013 Rise Set
Actual Time 6:07 AM EDT 8:46 PM EDT
Civil Twilight 5:34 AM EDT 9:18 PM EDT
Nautical Twilight 4:54 AM EDT 9:59 PM EDT
Astronomical Twilight 4:08 AM EDT 10:45 PM EDT
Moon 10:21 PM EDT (7/25) 9:39 AM EDT (7/25)
Length of Visible Light 15h 43m
Length of Day
14h 39m
Waning Gibbous, 88% of the Moon is Illuminated
Jul 25
Waning Gibbous
Jul 29
Last Quarter
Aug 6
New
Aug 14
First Quarter
Aug 20
Full

Hourly Weather History & Observations

Time (EDT) Temp. Dew Point Humidity Pressure Visibility Wind Dir Wind Speed Gust Speed Precip Events Conditions
12:51 AM 57.0 °F 50.0 °F 77% 30.05 in 10.0 mi Calm Calm - N/A   Clear
1:51 AM 57.0 °F 48.9 °F 74% 30.04 in 10.0 mi Calm Calm - N/A   Clear
2:51 AM 55.9 °F 48.0 °F 75% 30.04 in 10.0 mi Calm Calm - N/A   Clear
3:51 AM 55.9 °F 46.9 °F 72% 30.05 in 10.0 mi Calm Calm - N/A   Clear
4:51 AM 55.0 °F 46.9 °F 74% 30.07 in 10.0 mi Calm Calm - N/A   Clear
5:51 AM 55.0 °F 46.0 °F 72% 30.07 in 10.0 mi SSE 5.8 mph - N/A   Clear
6:51 AM 57.0 °F 46.9 °F 69% 30.08 in 10.0 mi SE 4.6 mph - N/A   Clear
7:51 AM 61.0 °F 48.0 °F 62% 30.09 in 10.0 mi Variable 3.5 mph - N/A   Clear
8:51 AM 64.9 °F 48.9 °F 56% 30.10 in 10.0 mi ESE 5.8 mph - N/A   Clear
9:51 AM 68.0 °F 46.9 °F 47% 30.11 in 10.0 mi East 11.5 mph - N/A   Clear
10:51 AM 69.1 °F 46.9 °F 45% 30.11 in 10.0 mi East 5.8 mph - N/A   Clear
11:51 AM 71.1 °F 46.9 °F 42% 30.11 in 10.0 mi NE 8.1 mph - N/A   Clear
12:51 PM 72.0 °F 50.0 °F 46% 30.11 in 10.0 mi NNE 13.8 mph - N/A   Clear
1:51 PM 72.0 °F 50.0 °F 46% 30.10 in 10.0 mi NNE 9.2 mph 19.6 mph N/A   Clear
2:51 PM 71.1 °F 51.1 °F 49% 30.09 in 10.0 mi NE 13.8 mph - 0.00 in   Clear
3:51 PM 73.0 °F 48.0 °F 41% 30.09 in 10.0 mi NE 11.5 mph - N/A   Clear
4:51 PM 73.0 °F 50.0 °F 44% 30.10 in 10.0 mi North 11.5 mph - N/A   Clear
5:51 PM 72.0 °F 51.1 °F 48% 30.10 in 10.0 mi NE 11.5 mph - N/A   Clear
6:51 PM 72.0 °F 50.0 °F 46% 30.09 in 10.0 mi NNE 10.4 mph - N/A   Clear
7:51 PM 71.1 °F 51.1 °F 49% 30.08 in 10.0 mi NE 6.9 mph - N/A   Clear
8:51 PM 68.0 °F 51.1 °F 55% 30.08 in 10.0 mi ENE 5.8 mph - N/A   Clear
9:51 PM 66.9 °F 52.0 °F 59% 30.10 in 10.0 mi Calm Calm - N/A   Clear
10:51 PM 63.0 °F 54.0 °F 72% 30.11 in 10.0 mi Calm Calm - N/A   Clear
11:51 PM 63.0 °F 53.1 °F 70% 30.10 in 10.0 mi Calm Calm - N/A   Clear